Weather History for KFFX - January, 2014

Change the Weather History Date:

Saturday, January 25, 2014

  Actual Average (KMKG) Record (KMKG)
Temperature  
Mean Temperature 16 °F 25 °F  
Max Temperature 28 °F 30 °F 63 °F (1950)
Min Temperature 4 °F 20 °F -8 °F (1948)
Degree Days  
Heating Degree Days 49 40  
Month to date heating degree days 987  
Since 1 July heating degree days 3433  
Cooling Degree Days 0 0  
Month to date cooling degree days 0  
Year to date cooling degree days 0  
Moisture  
Dew Point 11 °F    
Average Humidity 82    
Maximum Humidity 99    
Minimum Humidity 69    
Precipitation  
Precipitation 0.00 in 0.06 in 1.03 in (1950)
Month to date precipitation 1.67  
Year to date precipitation 1.67  
Snow  
Snow 0.00 in 0.90 in 9.40 in (2013)
Month to date snowfall 22.6  
Since 1 July snowfall 57.7  
Snow Depth -    
Sea Level Pressure  
Sea Level Pressure 29.48 in    
Wind  
Wind Speed 15 mph (NW)    
Max Wind Speed 26 mph    
Max Gust Speed 37 mph    
Visibility 4 miles    
Events Snow    
T = Trace of Precipitation, MM = Missing Value Source: NWS Daily Summary

Daily Weather History Graph

Daily Weather History Graph

Search for Another Location

Airport or City:

Trip Planner

Search our weather history database for the weather conditions in past years. The results will help you decide how hot, cold, wet, or windy it might be!

Date:

Astronomy

Jan. 25, 2014 Rise Set
Actual Time 8:06 AM EST 5:46 PM EST
Civil Twilight 7:35 AM EST 6:17 PM EST
Nautical Twilight 7:01 AM EST 6:51 PM EST
Astronomical Twilight 6:27 AM EST 7:25 PM EST
Moon 2:37 AM EST (1/25) 12:46 PM EST (1/25)
Length of Visible Light 10h 41m
Length of Day
9h 39m
Waning Crescent, 34% of the Moon is Illuminated
Jan 25
Waning Crescent
Jan 30
New
Feb 6
First Quarter
Feb 14
Full
Feb 22
Last Quarter

Hourly Weather History & Observations

Time (EST) Temp. Windchill Dew Point Humidity Pressure Visibility Wind Dir Wind Speed Gust Speed Precip Events Conditions
12:12 AM 26.6 °F 13.8 °F 26.1 °F 98% 29.33 in 0.8 mi WSW 17.3 mph 24.2 mph N/A Snow Snow
12:32 AM 27.1 °F 15.4 °F 26.2 °F 96% 29.31 in 1.2 mi WSW 15.0 mph 24.2 mph N/A Snow Light Snow
12:52 AM 27.5 °F 15.4 °F 26.4 °F 96% 29.29 in 2.0 mi WSW 16.1 mph 24.2 mph N/A Snow Light Snow
1:12 AM 27.7 °F 16.6 °F 26.8 °F 96% 29.28 in 1.0 mi WSW 13.8 mph 24.2 mph N/A Snow Light Snow
1:32 AM 27.9 °F 17.8 °F 27.3 °F 98% 29.27 in 1.0 mi West 11.5 mph 19.6 mph N/A Snow Snow
1:52 AM 28.4 °F 17.5 °F 27.9 °F 98% 29.26 in 0.5 mi West 13.8 mph 19.6 mph N/A Snow Snow
2:13 AM 28.4 °F 17.0 °F 28.0 °F 99% 29.26 in 1.0 mi West 15.0 mph 23.0 mph N/A Snow Snow
2:33 AM 28.8 °F 15.9 °F 28.2 °F 98% 29.26 in 1.0 mi West 19.6 mph 24.2 mph N/A Snow Snow
2:53 AM 28.4 °F 17.5 °F 27.5 °F 96% 29.26 in 0.8 mi West 13.8 mph 24.2 mph N/A Snow Snow
3:13 AM 28.0 °F 17.0 °F 27.3 °F 97% 29.26 in 1.2 mi West 13.8 mph - N/A Snow Light Snow
3:33 AM 27.9 °F 15.9 °F 27.1 °F 97% 29.26 in 1.8 mi West 16.1 mph - N/A Snow Light Snow
3:53 AM 28.0 °F 17.0 °F 26.6 °F 94% 29.26 in 3.0 mi WNW 13.8 mph 23.0 mph N/A Snow Light Snow
4:13 AM 27.7 °F 17.6 °F 25.9 °F 93% 29.26 in 10.0 mi West 11.5 mph - N/A Snow Light Snow
4:33 AM 28.0 °F 18.6 °F 24.6 °F 87% 29.26 in 10.0 mi WNW 10.4 mph 17.3 mph N/A   Overcast
4:54 AM 28.0 °F 17.5 °F 21.7 °F 77% 29.26 in 10.0 mi WNW 12.7 mph 19.6 mph N/A   Overcast
5:14 AM 27.9 °F 17.3 °F 20.3 °F 73% 29.26 in 10.0 mi WNW 12.7 mph 18.4 mph N/A   Overcast
5:34 AM 27.5 °F 15.9 °F 20.7 °F 75% 29.26 in 10.0 mi WNW 15.0 mph 19.6 mph N/A   Overcast
5:54 AM 26.6 °F 14.3 °F 21.6 °F 81% 29.27 in 2.5 mi NW 16.1 mph 28.8 mph N/A Snow Light Snow
6:14 AM 25.5 °F 11.6 °F 21.6 °F 85% 29.27 in 2.0 mi NW 19.6 mph 26.5 mph N/A Snow Light Snow
6:34 AM 25.2 °F 13.3 °F 20.3 °F 82% 29.27 in 10.0 mi NW 13.8 mph - N/A   Overcast
6:54 AM 25.3 °F 12.6 °F 16.9 °F 70% 29.27 in 7.0 mi NW 16.1 mph 28.8 mph N/A   Overcast
7:14 AM 23.5 °F 9.9 °F 19.9 °F 86% 29.29 in 1.2 mi North 17.3 mph 27.6 mph N/A Snow Light Snow
7:35 AM 21.0 °F 3.6 °F 17.8 °F 87% 29.32 in 1.0 mi North 26.5 mph 36.8 mph N/A Snow Snow
7:55 AM 19.8 °F 5.4 °F 15.4 °F 83% 29.33 in 3.0 mi North 16.1 mph - N/A Snow Light Snow
8:15 AM 18.7 °F 4.0 °F 12.9 °F 78% 29.33 in 5.0 mi North 16.1 mph 21.9 mph N/A Snow Light Snow
8:35 AM 18.3 °F 3.1 °F 12.9 °F 79% 29.35 in 4.0 mi North 17.3 mph 24.2 mph N/A Snow Light Snow
8:50 AM 18.1 °F 2.9 °F 13.5 °F 82% 29.36 in 2.5 mi North 17.3 mph 21.9 mph N/A Snow Light Snow
9:10 AM 17.6 °F 2.7 °F 13.8 °F 85% 29.38 in 1.2 mi NNW 16.1 mph - N/A Snow Light Snow
9:30 AM 17.4 °F 1.5 °F 13.6 °F 85% 29.39 in 1.2 mi NNW 18.4 mph 26.5 mph N/A Snow Light Snow
9:53 AM 16.7 °F 1.0 °F 12.9 °F 85% 29.40 in 1.0 mi NNW 17.3 mph 27.6 mph N/A Snow Light Snow
10:13 AM 16.7 °F 1.0 °F 12.0 °F 82% 29.42 in 2.0 mi NW 17.3 mph 29.9 mph N/A Snow Light Snow
10:33 AM 14.4 °F -3.0 °F 9.7 °F 82% 29.44 in 0.5 mi NNW 19.6 mph 29.9 mph N/A Snow Light Snow
10:53 AM 14.4 °F -1.0 °F 8.6 °F 78% 29.45 in 2.5 mi NNW 15.0 mph - N/A   Haze
11:13 AM 14.9 °F 1.6 °F 9.5 °F 79% 29.46 in 4.0 mi NNW 11.5 mph 18.4 mph N/A Snow Light Snow
11:33 AM 14.7 °F 0.7 °F 8.4 °F 76% 29.47 in 2.0 mi NNW 12.7 mph - N/A Snow Light Snow
11:53 AM 13.5 °F -4.6 °F 8.6 °F 81% 29.48 in 0.8 mi NNW 20.7 mph 27.6 mph N/A Snow Light Snow
12:13 PM 13.5 °F -4.2 °F 9.0 °F 82% 29.49 in 1.5 mi NNW 19.6 mph 23.0 mph N/A Snow Light Snow
12:33 PM 12.9 °F -3.9 °F 7.3 °F 78% 29.49 in 1.2 mi NNW 17.3 mph 21.9 mph N/A Snow Light Snow
12:54 PM 12.9 °F -5.7 °F 5.7 °F 73% 29.50 in 2.0 mi NNW 21.9 mph 32.2 mph N/A   Haze
1:14 PM 12.9 °F -3.9 °F 5.0 °F 71% 29.50 in 1.5 mi NW 17.3 mph 29.9 mph N/A   Haze
1:34 PM 12.2 °F -7.1 °F 6.3 °F 77% 29.51 in 0.8 mi NW 23.0 mph 31.1 mph N/A Snow Light Snow
1:54 PM 11.1 °F -7.7 °F 3.6 °F 72% 29.52 in 0.8 mi NNW 20.7 mph 31.1 mph N/A Snow Light Snow
2:14 PM 10.9 °F -7.5 °F 2.5 °F 69% 29.53 in 1.5 mi NNW 19.6 mph 28.8 mph N/A   Haze
2:34 PM 10.4 °F -8.6 °F 3.6 °F 74% 29.54 in 1.8 mi NNW 20.7 mph 25.3 mph N/A   Haze
2:54 PM 10.0 °F -7.1 °F 3.9 °F 76% 29.55 in 1.5 mi NW 16.1 mph 20.7 mph N/A Snow Light Snow
3:14 PM 9.7 °F -7.5 °F 5.7 °F 84% 29.55 in 0.5 mi NNW 16.1 mph 20.7 mph N/A Snow Light Snow
3:34 PM 9.9 °F -4.0 °F 6.3 °F 85% 29.56 in 0.5 mi NNW 10.4 mph - N/A Snow Light Snow
3:55 PM 10.0 °F -4.5 °F 6.3 °F 85% 29.57 in 0.8 mi NW 11.5 mph 16.1 mph N/A Snow Light Snow
4:15 PM 10.4 °F -4.8 °F 5.9 °F 82% 29.58 in 1.2 mi WNW 12.7 mph 20.7 mph N/A Snow Light Snow
4:35 PM 10.4 °F -6.6 °F 4.3 °F 76% 29.60 in 1.8 mi WNW 16.1 mph 25.3 mph N/A Snow Light Snow
4:55 PM 9.3 °F -7.4 °F 4.8 °F 82% 29.61 in 0.5 mi NW 15.0 mph 25.3 mph N/A Snow Light Snow
5:15 PM 9.5 °F -7.2 °F 5.2 °F 83% 29.62 in 1.0 mi NW 15.0 mph - N/A Snow Light Snow
5:30 PM 8.6 °F -7.7 °F 5.0 °F 85% 29.63 in 0.5 mi NW 13.8 mph - N/A Snow Snow
5:50 PM 8.4 °F -2.8 °F 5.2 °F 87% 29.65 in 0.5 mi NW 6.9 mph - N/A Snow Snow
6:10 PM 8.6 °F 0.1 °F 5.9 °F 89% 29.66 in 0.8 mi WNW 4.6 mph - N/A Snow Snow
6:31 PM 8.6 °F -2.6 °F 5.0 °F 85% 29.67 in 2.5 mi WNW 6.9 mph - N/A Snow Light Snow
6:51 PM 8.4 °F -3.9 °F 4.1 °F 83% 29.67 in 5.0 mi WNW 8.1 mph - N/A Snow Light Snow
7:11 PM 6.3 °F -7.5 °F 1.2 °F 80% 29.68 in 10.0 mi WNW 9.2 mph - N/A   Scattered Clouds
7:31 PM 6.6 °F -8.0 °F 0.9 °F 77% 29.69 in 10.0 mi WNW 10.4 mph - N/A   Clear
7:51 PM 6.1 °F -7.8 °F -0.0 °F 76% 29.70 in 10.0 mi WNW 9.2 mph - N/A   Clear
8:11 PM 5.4 °F -7.6 °F -0.9 °F 75% 29.70 in 10.0 mi West 8.1 mph - N/A   Scattered Clouds
8:31 PM 5.7 °F -7.2 °F -1.1 °F 73% 29.71 in 10.0 mi West 8.1 mph - N/A   Scattered Clouds
8:51 PM 5.0 °F -9.1 °F -2.2 °F 72% 29.71 in 10.0 mi WNW 9.2 mph - N/A   Clear
9:11 PM 5.0 °F -9.1 °F -2.4 °F 72% 29.71 in 10.0 mi WNW 9.2 mph - N/A   Scattered Clouds
9:31 PM 4.6 °F -11.3 °F -2.4 °F 73% 29.72 in 10.0 mi WNW 11.5 mph - N/A   Scattered Clouds
9:51 PM 5.2 °F -9.8 °F -2.2 °F 72% 29.72 in 10.0 mi WNW 10.4 mph - N/A   Scattered Clouds
10:12 PM 6.1 °F -7.8 °F -1.5 °F 71% 29.72 in 10.0 mi WNW 9.2 mph - N/A   Mostly Cloudy
10:32 PM 6.8 °F -7.8 °F -0.0 °F 74% 29.72 in 10.0 mi WNW 10.4 mph - N/A   Overcast
10:52 PM 5.7 °F -4.8 °F -0.9 °F 74% 29.72 in 10.0 mi WNW 5.8 mph - N/A   Overcast
11:12 PM 5.7 °F -3.2 °F -0.4 °F 76% 29.73 in 10.0 mi West 4.6 mph - N/A   Mostly Cloudy
11:32 PM 5.5 °F -3.4 °F -0.4 °F 77% 29.73 in 10.0 mi West 4.6 mph - N/A   Mostly Cloudy
11:52 PM 6.3 °F -2.6 °F 0.9 °F 78% 29.72 in 10.0 mi West 4.6 mph - N/A   Overcast